TimeEDT,TemperatureF,Dew PointF,Humidity,Sea Level PressureIn,VisibilityMPH,Wind Direction,Wind SpeedMPH,Gust SpeedMPH,PrecipitationIn,Events,Conditions,WindDirDegrees,DateUTC
12:00 AM,50.0,50.0,100,30.00,0.8,ENE,2.3,-,N/A,,Clear,70,2012-10-05 04:00:00
12:01 AM,50.0,50.0,100,30.00,0.6,ENE,2.3,-,N/A,,Partly Cloudy,70,2012-10-05 04:01:00
1:00 AM,51.8,51.8,100,29.99,0.5,Calm,Calm,-,N/A,Fog,Fog,0,2012-10-05 05:00:00
1:52 AM,50.0,50.0,100,29.98,1.0,ENE,3.5,-,N/A,,Clear,70,2012-10-05 05:52:00
2:00 AM,51,50,96,29.98,1,ENE,3.5,,,,Mist,70,2012-10-05 06:00:00
2:00 AM,50.0,50.0,100,29.98,1.0,ENE,3.5,-,N/A,,Clear,70,2012-10-05 06:00:00
2:07 AM,51.8,50.0,94,29.98,2.0,East,3.5,-,N/A,,Clear,90,2012-10-05 06:07:00
2:10 AM,50.0,50.0,100,29.97,1.5,East,2.3,-,N/A,,Clear,90,2012-10-05 06:10:00
2:12 AM,50.0,50.0,100,29.97,0.8,ENE,2.3,-,N/A,,Clear,60,2012-10-05 06:12:00
2:14 AM,50.0,48.2,94,29.97,0.8,East,2.3,-,N/A,,Partly Cloudy,100,2012-10-05 06:14:00
3:00 AM,48.2,48.2,100,29.96,0.4,SE,2.3,-,N/A,Fog,Fog,140,2012-10-05 07:00:00
3:20 AM,50.0,48.2,94,29.96,1.0,Calm,Calm,-,N/A,,Scattered Clouds,0,2012-10-05 07:20:00
3:22 AM,50.0,48.2,94,29.96,2.2,Calm,Calm,-,N/A,,Scattered Clouds,0,2012-10-05 07:22:00
3:31 AM,48.2,48.2,100,29.96,1.5,Calm,Calm,-,N/A,,Mostly Cloudy,0,2012-10-05 07:31:00
3:47 AM,50.0,48.2,94,29.96,2.0,Variable,2.3,-,N/A,,Overcast,0,2012-10-05 07:47:00
3:51 AM,50.0,50.0,100,29.96,3.0,Variable,2.3,-,N/A,,Overcast,0,2012-10-05 07:51:00
4:00 AM,50.0,50.0,100,29.96,4.0,Calm,Calm,-,N/A,,Overcast,0,2012-10-05 08:00:00
4:11 AM,51.8,51.8,100,29.97,6.0,Variable,2.3,-,N/A,,Overcast,0,2012-10-05 08:11:00
5:00 AM,53,52,97,29.97,10,WSW,1.2,,,,Overcast,250,2012-10-05 09:00:00
5:00 AM,53.6,51.8,94,29.97,9.0,Calm,Calm,-,N/A,,Overcast,0,2012-10-05 09:00:00
6:00 AM,51.8,51.8,100,29.97,4.0,South,2.3,-,N/A,,Mostly Cloudy,190,2012-10-05 10:00:00
6:05 AM,51.8,51.8,100,29.97,2.5,South,2.3,-,N/A,,Mostly Cloudy,190,2012-10-05 10:05:00
6:07 AM,51.8,51.8,100,29.97,1.5,South,2.3,-,N/A,,Mostly Cloudy,190,2012-10-05 10:07:00
6:11 AM,51.8,50.0,94,29.97,0.8,SSW,2.3,-,N/A,,Mostly Cloudy,210,2012-10-05 10:11:00
6:21 AM,50.0,50.0,100,29.98,0.8,SW,2.3,-,N/A,,Mostly Cloudy,220,2012-10-05 10:21:00
6:22 AM,50.0,50.0,100,29.98,1.0,SW,2.3,-,N/A,,Mostly Cloudy,220,2012-10-05 10:22:00
6:27 AM,51.8,51.8,100,29.98,2.5,SW,3.5,-,N/A,,Overcast,220,2012-10-05 10:27:00
6:28 AM,51.8,51.8,100,29.98,3.0,SSW,3.5,-,N/A,,Overcast,210,2012-10-05 10:28:00
6:31 AM,53.6,51.8,94,29.98,7.0,SSW,3.5,-,N/A,,Mostly Cloudy,200,2012-10-05 10:31:00
6:54 AM,53.6,51.8,94,29.97,9.0,South,3.5,-,N/A,,Scattered Clouds,190,2012-10-05 10:54:00
7:00 AM,53.6,51.8,94,29.97,9.0,South,3.5,-,N/A,,Scattered Clouds,180,2012-10-05 11:00:00
7:57 AM,55.4,53.6,94,29.97,9.0,SSW,4.6,-,N/A,,Overcast,200,2012-10-05 11:57:00
8:00 AM,55.4,53.6,94,29.97,9.0,SSW,3.5,-,N/A,,Overcast,200,2012-10-05 12:00:00
9:00 AM,59.0,57.2,94,29.97,9.0,WSW,8.1,-,N/A,,Mostly Cloudy,240,2012-10-05 13:00:00
9:03 AM,59.0,55.4,88,29.97,9.0,SW,6.9,-,N/A,,Scattered Clouds,230,2012-10-05 13:03:00
10:00 AM,62.6,57.2,82,29.96,9.0,SW,8.1,-,N/A,,Clear,220,2012-10-05 14:00:00
11:00 AM,65,56,65,29.95,10,SW,9.2,,,,Clear,220,2012-10-05 15:00:00
11:00 AM,64.4,55.4,73,29.95,9.0,SW,10.4,-,N/A,,Scattered Clouds,220,2012-10-05 15:00:00
12:00 PM,68.0,57.2,68,29.93,9.0,SW,8.1,-,N/A,,Clear,220,2012-10-05 16:00:00
1:00 PM,69.8,57.2,64,29.91,9.0,SW,11.5,-,N/A,,Partly Cloudy,230,2012-10-05 17:00:00
2:00 PM,70,57,54,29.88,10,WSW,9.2,,,,,240,2012-10-05 18:00:00
2:00 PM,69.8,57.2,64,29.88,9.0,WSW,9.2,-,N/A,,Mostly Cloudy,240,2012-10-05 18:00:00
4:00 PM,69.8,53.6,56,29.85,9.0,WSW,11.5,18.4,N/A,,Mostly Cloudy,240,2012-10-05 20:00:00
5:00 PM,69,54,49,29.85,10,SW,9.2,,,,Overcast,220,2012-10-05 21:00:00
5:00 PM,69.8,53.6,56,29.85,9.0,SW,8.1,-,N/A,,Overcast,220,2012-10-05 21:00:00
6:00 PM,66.2,55.4,68,29.86,9.0,WSW,6.9,-,N/A,,Mostly Cloudy,250,2012-10-05 22:00:00
6:39 PM,66.2,55.4,68,29.86,9.0,WSW,4.6,-,N/A,Rain,Light Rain,250,2012-10-05 22:39:00
6:58 PM,64.4,57.2,77,29.86,9.0,SW,3.5,-,N/A,,Overcast,230,2012-10-05 22:58:00
7:00 PM,64.4,57.2,77,29.86,9.0,SW,4.6,-,N/A,,Overcast,220,2012-10-05 23:00:00
8:00 PM,61,56,80,29.86,10,SSW,3.5,,,,,200,2012-10-06 00:00:00
8:00 PM,60.8,57.2,88,29.86,9.0,South,3.5,-,N/A,,Clear,180,2012-10-06 00:00:00
9:00 PM,60.8,55.4,82,29.86,9.0,South,4.6,-,N/A,,Scattered Clouds,180,2012-10-06 01:00:00
10:00 PM,62.6,55.4,77,29.85,9.0,SW,4.6,-,N/A,,Partly Cloudy,230,2012-10-06 02:00:00
11:00 PM,61,55,76,29.85,10,SW,4.6,,,,Overcast,220,2012-10-06 03:00:00
11:00 PM,60.8,55.4,82,29.85,9.0,SW,4.6,-,N/A,,Overcast,220,2012-10-06 03:00:00